Location: Rounton
(54.4000°N, 1.3500°W)
Time: 22:52:20
(UTC+01:00)

Vanguard 1 - Pass Details

Date: 24 February 2024
Orbit: 653 x 3825 km, 34.2° (Epoch: 21 April)

Event Time Altitude Azimuth Distance (km) Brightness Sun altitude
Rises 19:02:57 0° 206° (SSW) 5,444 14.2 -14.1°
Reaches altitude 10° 19:06:53 10° 194° (SSW) 4,884 13.7 -14.7°
Maximum altitude 19:18:21 27° 144° (SE) 4,676 13.1 -16.3°
Enters shadow 19:27:33 19° 111° (ESE) 5,766 13.3 -17.7°
Drops below altitude 10° 19:34:04 10° 98° (E) 6,806 - -18.6°
Sets 19:40:58 0° 89° (E) 7,965 - -19.6°
